STARLINK-34140, 64085

Orbit data source: Space-Track

STARLINK-34140, 64085 is a payload satellite owned by SpaceX/Seattle (US) in LEO that was launched on Wed, 21 May 2025 UTC via an FALCON 9 launch vehicle from the Air Force Eastern Test Range (AFETR). Payload-class satellites include a variety of spacecraft equipped with specific instruments for various scientific and technological missions. These include communications satellites like Starlink; space stations such as the ISS; scientific satellites like the Hubble; Earth observation satellites from companies like Planet Labs, Umbra, and HawkEye 360; GPS; miniature CubeSats for education and research; and military/defense satellites.

Loading next visibility...
Identifier
64085, 2025-107X
Orbit
LEO
Country
Flag of USUS
Related business
Manufacturer
SpaceX/Seattle
Mission
Operational Commercial Communications
Bus & Motor
STARLINK V2MO, Unknown motor
Mass
575 kg wet, ~530 kg dry
Launch date (UTC)
2025-05-21 (1 year ago)
Launch vehicle
FALCON 9
Launch site
Air Force Eastern Test Range (AFETR)
Object type
Payload
Rocket body
Debris
Shape & HBR
Box + 2 Pan, 17.7 m
Radar Cross Section
36.964 m², Large (>1 m²)

Expand to show TLE details & history
Last TLE update: 1 day ago

TLE from 1 day ago
0 STARLINK-34140
1 64085U 25107X   26170.84756372  .00012883  00000-0  47669-3 0  9993
2 64085  43.0010 344.6585 0001023 269.1259  90.9476 15.27591224 61727
Epoch: 2026-06-19T20:20Z
TLE epoch observation values (Epoch: 2026-06-19T20:20:29.505Z)
Latitude
0.00002°
Longitude
131.46492°
Altitude
482.803 km
Speed
7.626 km/s
True Right ascension
22h 58m 38s
True Declination
0° 00' 00"
Sunlit
Object was in daylight at epoch
Visualization orbit readout
Latitude
Unknown
Longitude
Unknown
Altitude
Unknown
Speed
Unknown
Apparent Right ascension
Unknown
Apparent Declination
Unknown
Sunlit
N/A
Visualization observer readout
Local Sidereal Time
07:18:53
Azimuth
Unknown
Elevation
Unknown
Doppler factor
Unknown
Orbital elements
Apogee altitude
485.663 km
Perigee altitude
484.258 km
Semi-major axis
6,863.098 km
Eccentricity
0.0001
Inclination
43.001°
RAAN
344.6585°
Arg. of periapsis
269.1259°
True anomaly
90.95932°
Mean anomaly
90.9476°
Eccentric anomaly
90.95346°
Mean motion
3.81736 °/min
Orbital period
94.31 mins
BSTAR
0.00047669
Loading maneuver chart data...
Computing Atmospheric mass density...
Loading historical data...
Loading historical data...
Loading historical data...
Loading historical data...
Loading historical data...
Loading historical data...
Loading historical data...

Documentation

Showing up to 5 results
|